| time (UTC) | temp C | wind direction | speed KPH | gust KPH | rain 1hr cm | rain 24hr cm | rain mn cm | humidity % | barometer mb |
| 20260507223046 | 13 | 308 | 17.7 | 27.4 | 0.00 | 0.18 | 0.00 | 28 | 1004.5 |
| 20260507221541 | 13 | 309 | 12.9 | 25.7 | 0.00 | 0.18 | 0.00 | 29 | 1004.6 |
| 20260507220040 | 14 | 250 | 12.9 | 25.7 | 0.00 | 0.18 | 0.00 | 28 | 1004.5 |
| 20260507214600 | 14 | 319 | 12.9 | 20.9 | 0.00 | 0.20 | 0.00 | 27 | 1004.4 |
| 20260507213046 | 14 | 277 | 14.5 | 29.0 | 0.00 | 0.20 | 0.00 | 28 | 1004.4 |
| 20260507211549 | 14 | 257 | 11.3 | 25.7 | 0.00 | 0.20 | 0.00 | 31 | 1004.4 |
| 20260507210047 | 13 | 287 | 12.9 | 30.6 | 0.00 | 0.20 | 0.00 | 33 | 1004.3 |
| 20260507204540 | 13 | 314 | 11.3 | 24.1 | 0.00 | 0.41 | 0.00 | 32 | 1004.2 |
| 20260507203102 | 14 | 274 | 14.5 | 25.7 | 0.00 | 0.41 | 0.00 | 31 | 1004.3 |
| 20260507201556 | 14 | 330 | 11.3 | 20.9 | 0.00 | 0.41 | 0.00 | 31 | 1004.3 |
| 20260507200104 | 14 | 272 | 8.0 | 33.8 | 0.00 | 0.41 | 0.00 | 36 | 1004.3 |
| 20260507194545 | 14 | 327 | 14.5 | 29.0 | 0.00 | 0.64 | 0.00 | 36 | 1004.4 |
| 20260507193049 | 13 | 313 | 17.7 | 32.2 | 0.00 | 0.64 | 0.00 | 32 | 1004.5 |
| 20260507191541 | 14 | 309 | 20.9 | 38.6 | 0.00 | 0.64 | 0.00 | 33 | 1004.4 |
| 20260507190041 | 13 | 258 | 17.7 | 33.8 | 0.00 | 0.64 | 0.00 | 33 | 1004.8 |
| 20260507184555 | 14 | 284 | 20.9 | 35.4 | 0.00 | 1.17 | 0.00 | 31 | 1004.7 |
| 20260507183048 | 13 | 329 | 17.7 | 29.0 | 0.00 | 1.17 | 0.00 | 38 | 1004.7 |
| 20260507181548 | 14 | 298 | 16.1 | 29.0 | 0.00 | 1.17 | 0.00 | 37 | 1004.8 |
| 20260507180050 | 14 | 273 | 20.9 | 32.2 | 0.00 | 1.17 | 0.00 | 40 | 1004.7 |
| 20260507174544 | 13 | 288 | 16.1 | 35.4 | 0.00 | 1.17 | 0.00 | 35 | 1004.8 |
| 20260507173049 | 13 | 344 | 25.7 | 45.1 | 0.00 | 1.17 | 0.00 | 38 | 1004.9 |
| 20260507171545 | 13 | 257 | 16.1 | 30.6 | 0.00 | 1.17 | 0.00 | 45 | 1005.1 |
| 20260507170057 | 12 | 259 | 19.3 | 30.6 | 0.00 | 1.17 | 0.00 | 53 | 1005.4 |
| 20260507164557 | 12 | 280 | 9.7 | 25.7 | 0.00 | 1.17 | 0.00 | 54 | 1005.5 |
| 20260507163043 | 12 | 284 | 16.1 | 27.4 | 0.00 | 1.17 | 0.00 | 53 | 1005.5 |
| 20260507161548 | 13 | 309 | 8.0 | 22.5 | 0.00 | 1.17 | 0.00 | 54 | 1005.5 |
| 20260507160049 | 12 | 315 | 14.5 | 30.6 | 0.00 | 1.17 | 0.00 | 53 | 1005.6 |
| 20260507154553 | 13 | 300 | 17.7 | 25.7 | 0.00 | 1.17 | 0.00 | 51 | 1005.9 |
| 20260507153046 | 12 | 265 | 12.9 | 27.4 | 0.00 | 1.17 | 0.00 | 54 | 1006.0 |
| 20260507151546 | 12 | 222 | 9.7 | 24.1 | 0.00 | 1.17 | 0.00 | 55 | 1006.0 |
| 20260507150051 | 13 | 329 | 17.7 | 29.0 | 0.00 | 1.17 | 0.00 | 52 | 1006.0 |
| 20260507144550 | 12 | 283 | 16.1 | 30.6 | 0.00 | 1.17 | 0.00 | 50 | 1006.1 |
| 20260507143057 | 12 | 287 | 17.7 | 27.4 | 0.00 | 1.17 | 0.00 | 53 | 1006.0 |
| 20260507141553 | 12 | 305 | 14.5 | 27.4 | 0.00 | 1.17 | 0.00 | 54 | 1005.9 |
| 20260507140046 | 12 | 309 | 14.5 | 22.5 | 0.00 | 1.17 | 0.00 | 53 | 1005.9 |
| 20260507134545 | 12 | 289 | 9.7 | 20.9 | 0.00 | 1.17 | 0.00 | 56 | 1006.2 |
| 20260507133106 | 12 | 326 | 12.9 | 25.7 | 0.00 | 1.17 | 0.00 | 57 | 1006.4 |
| 20260507131553 | 12 | 287 | 12.9 | 19.3 | 0.00 | 1.17 | 0.00 | 58 | 1006.5 |
| 20260507130104 | 12 | 296 | 9.7 | 16.1 | 0.00 | 1.17 | 0.00 | 60 | 1006.5 |
| 20260507124547 | 11 | 343 | 11.3 | 22.5 | 0.00 | 1.17 | 0.00 | 63 | 1006.6 |
| 20260507123045 | 11 | 292 | 4.8 | 12.9 | 0.00 | 1.17 | 0.00 | 70 | 1006.7 |
| 20260507121549 | 10 | 291 | 4.8 | 14.5 | 0.00 | 1.17 | 0.00 | 75 | 1006.8 |
| 20260507120052 | 10 | 252 | 6.4 | 14.5 | 0.00 | 1.17 | 0.00 | 82 | 1006.8 |
| 20260507114614 | 10 | 294 | 8.0 | 14.5 | 0.00 | 1.17 | 0.00 | 82 | 1006.8 |
| 20260507113047 | 10 | 309 | 8.0 | 14.5 | 0.00 | 1.17 | 0.00 | 86 | 1006.7 |
| 20260507111540 | 9 | 266 | 1.6 | 6.4 | 0.00 | 1.17 | 0.00 | 88 | 1006.7 |
| 20260507110046 | 9 | 288 | 3.2 | 8.0 | 0.00 | 1.17 | 0.00 | 89 | 1006.8 |
| 20260507104546 | 9 | 0 | 0.0 | 3.2 | 0.00 | 1.17 | 0.00 | 89 | 1006.8 |
| 20260507103049 | 9 | 21 | 3.2 | 11.3 | 0.00 | 1.17 | 0.00 | 90 | 1006.4 |
| 20260507101544 | 9 | 308 | 3.2 | 9.7 | 0.00 | 1.17 | 0.00 | 91 | 1007.0 |
| 20260507100048 | 9 | 294 | 4.8 | 9.7 | 0.00 | 1.17 | 0.00 | 91 | 1006.9 |
| 20260507094547 | 9 | 286 | 4.8 | 12.9 | 0.00 | 1.17 | 0.00 | 90 | 1006.6 |
| 20260507093048 | 9 | 270 | 4.8 | 11.3 | 0.00 | 1.17 | 0.00 | 89 | 1006.7 |
| 20260507091546 | 9 | 296 | 4.8 | 11.3 | 0.00 | 1.17 | 0.00 | 89 | 1006.5 |
| 20260507090042 | 9 | 355 | 6.4 | 14.5 | 0.00 | 1.17 | 0.00 | 89 | 1005.8 |
| 20260507084556 | 9 | 333 | 6.4 | 14.5 | 0.00 | 1.17 | 0.00 | 88 | 1005.9 |
| 20260507083050 | 9 | 329 | 4.8 | 9.7 | 0.00 | 1.17 | 0.00 | 87 | 1005.9 |
| 20260507081548 | 9 | 297 | 6.4 | 16.1 | 0.00 | 1.17 | 0.00 | 87 | 1006.1 |
| 20260507080057 | 9 | 319 | 3.2 | 19.3 | 0.00 | 1.17 | 0.00 | 86 | 1005.8 |
| 20260507074544 | 10 | 299 | 6.4 | 22.5 | 0.00 | 1.17 | 0.00 | 85 | 1005.3 |
| 20260507073051 | 10 | 323 | 9.7 | 20.9 | 0.00 | 1.17 | 0.00 | 86 | 1005.3 |
| 20260507071545 | 10 | 315 | 8.0 | 17.7 | 0.00 | 1.17 | 0.00 | 87 | 1005.4 |
| 20260507070042 | 10 | 281 | 12.9 | 20.9 | 0.00 | 1.17 | 0.00 | 88 | 1005.3 |
| 20260507064542 | 10 | 292 | 8.0 | 16.1 | 0.00 | 1.17 | 0.00 | 91 | 1005.2 |
| 20260507063055 | 11 | 289 | 6.4 | 16.1 | 0.00 | 1.17 | 0.00 | 93 | 1005.0 |
| 20260507061548 | 11 | 242 | 8.0 | 16.1 | 0.00 | 1.17 | 0.00 | 93 | 1005.3 |
| 20260507060050 | 11 | 288 | 6.4 | 16.1 | 0.00 | 1.17 | 0.00 | 93 | 1005.0 |
| 20260507054546 | 11 | 271 | 4.8 | 12.9 | 0.00 | 1.17 | 0.00 | 93 | 1004.9 |
| 20260507053045 | 11 | 294 | 9.7 | 19.3 | 0.00 | 1.17 | 0.00 | 93 | 1005.1 |
| 20260507051550 | 11 | 284 | 4.8 | 17.7 | 0.00 | 1.17 | 0.00 | 92 | 1005.0 |
| 20260507050049 | 11 | 275 | 11.3 | 20.9 | 0.00 | 1.17 | 0.00 | 93 | 1005.0 |
| 20260507044541 | 12 | 247 | 11.3 | 19.3 | 0.05 | 1.17 | 0.00 | 94 | 1004.9 |
| 20260507043042 | 12 | 265 | 8.0 | 22.5 | 0.13 | 1.17 | 0.00 | 95 | 1004.8 |
| 20260507041541 | 13 | 291 | 9.7 | 20.9 | 0.13 | 1.17 | 0.00 | 95 | 1004.4 |
| 20260507040043 | 13 | 293 | 11.3 | 20.9 | 0.13 | 1.17 | 0.00 | 95 | 1004.5 |
| 20260507034551 | 13 | 303 | 11.3 | 22.5 | 0.08 | 1.12 | 1.12 | 92 | 1004.8 |
| 20260507033051 | 14 | 273 | 12.9 | 30.6 | 0.03 | 1.04 | 1.04 | 92 | 1004.9 |
| 20260507031543 | 15 | 300 | 14.5 | 30.6 | 0.03 | 1.04 | 1.04 | 98 | 1004.6 |
| 20260507030043 | 16 | 329 | 8.0 | 22.5 | 0.05 | 1.04 | 1.04 | 100 | 1004.2 |
| 20260507024600 | 16 | 317 | 11.3 | 20.9 | 0.05 | 1.04 | 1.04 | 100 | 1004.2 |
| 20260507023050 | 17 | 236 | 8.0 | 19.3 | 0.03 | 1.02 | 1.02 | 100 | 1004.0 |
| 20260507021547 | 17 | 215 | 8.0 | 19.3 | 0.03 | 1.02 | 1.02 | 100 | 1004.2 |
| 20260507020105 | 17 | 262 | 8.0 | 25.7 | 0.00 | 0.99 | 0.99 | 100 | 1004.2 |
| 20260507014553 | 17 | 236 | 9.7 | 20.9 | 0.00 | 0.99 | 0.99 | 100 | 1004.3 |
| 20260507013054 | 17 | 181 | 8.0 | 27.4 | 0.00 | 0.99 | 0.99 | 100 | 1004.2 |
| 20260507011547 | 17 | 216 | 9.7 | 24.1 | 0.00 | 0.99 | 0.99 | 100 | 1004.2 |
| 20260507010050 | 17 | 167 | 11.3 | 24.1 | 0.00 | 0.99 | 0.99 | 100 | 1004.4 |
| 20260507004553 | 17 | 222 | 11.3 | 24.1 | 0.00 | 0.99 | 0.99 | 100 | 1004.5 |
| 20260507003049 | 17 | 216 | 9.7 | 27.4 | 0.00 | 0.99 | 0.99 | 100 | 1004.4 |
| 20260507001545 | 17 | 218 | 9.7 | 25.7 | 0.00 | 0.99 | 0.99 | 100 | 1004.3 |
| 20260507000050 | 17 | 212 | 8.0 | 27.4 | 0.00 | 0.99 | 0.99 | 100 | 1004.1 |
| 20260506234551 | 17 | 209 | 12.9 | 32.2 | 0.00 | 0.99 | 0.99 | 100 | 1004.3 |
| 20260506233101 | 17 | 214 | 9.7 | 35.4 | 0.00 | 0.99 | 0.99 | 100 | 1004.4 |
| 20260506231553 | 17 | 213 | 14.5 | 27.4 | 0.00 | 0.99 | 0.99 | 100 | 1004.3 |
| 20260506230049 | 17 | 188 | 12.9 | 27.4 | 0.00 | 0.99 | 0.99 | 100 | 1004.4 |
| 20260506224541 | 17 | 178 | 11.3 | 24.1 | 0.00 | 0.99 | 0.99 | 100 | 1004.5 |